User: anonymous
Location: Clatteringshaws Loch
(55.0508°N, 4.2860°W)
Time: 13:23:52
(UTC+01:00)
Language:

Cosmos 2221 Rocket - Orbit

View from above orbital plane
View from above orbital plane
View from above satellite
View from above satellite

Ground track
Ground track

The orbit data is extracted from the following two-line orbital elements,

1 22237U 92080B   14108.55337475  .00000713  00000-0  95890-4 0  3033
2 22237 082.5097 112.4367 0020235 028.4910 090.0847 14.77816391152721
Epoch (UTC): 18 April 2014 13:16:51
Eccentricity: 0.0020235
inclination: 82.5097°
perigee height: 622 km
apogee height: 650 km
right ascension of ascending node: 112.4367°
argument of perigee: 28.4910°
revolutions per day: 14.77816391
mean anomaly at epoch: 90.0847°
orbit number at epoch: 15272

The dashed part of the orbit path shows where the satellite is in the earth's shadow,  

DLR